Location: Miles
(41.4492°N, 81.6087°W)
Time: 19:39:13
(UTC+00:00)

Transit 2A - Pass Details

Date: 17 September 2024
Orbit: 590 x 960 km, 66.7° (Epoch: 05 October)

Event Time Altitude Azimuth Distance (km) Brightness Sun altitude
Rises 07:02:49 0° 336° (NNW) 3,644 9.8 -40.7°
Reaches altitude 10° 07:05:54 10° 349° (N) 2,676 9.2 -40.4°
Maximum altitude 07:11:03 26° 44° (NE) 1,732 8.2 -39.8°
Drops below altitude 10° 07:15:55 10° 99° (E) 2,527 8.9 -39.3°
Sets 07:18:44 0° 112° (ESE) 3,402 9.5 -39.0°
